• en Suisse
  • Liste des pays
  • À 7 jours
  • Température de l'eau
  • Carte satellitaire
  • Carte météo
  • Widgets météo
  • user-avatar
    Se connecter

    Météo par heure à Dikhil

    Ce jour, 19 Octobre, Jeudi

    Heure Température Précipitation Vent Pression Humidité
    00:00 +32°C° 0 mm 4 m/s 716 mmHg 49%
    01:00 +30°C° 0 mm 4 m/s 716 mmHg 52%
    02:00 +30°C° 0 mm 4 m/s 716 mmHg 55%
    03:00 +29°C° 0 mm 5 m/s 716 mmHg 60%
    04:00 +28°C° 0 mm 4 m/s 716 mmHg 62%
    05:00 +28°C° 0 mm 4 m/s 716 mmHg 63%
    06:00 +28°C° 0 mm 3 m/s 717 mmHg 65%
    07:00 +29°C° 0 mm 3 m/s 717 mmHg 58%
    08:00 +30°C° 0 mm 3 m/s 717 mmHg 51%
    09:00 +33°C° 0 mm 3 m/s 718 mmHg 42%
    10:00 +34°C° 0 mm 4 m/s 718 mmHg 38%
    11:00 +35°C° 0 mm 4 m/s 718 mmHg 33%
    12:00 +37°C° 0 mm 4 m/s 718 mmHg 28%
    13:00 +37°C° 0 mm 5 m/s 717 mmHg 27%
    14:00 +39°C° 0 mm 5 m/s 716 mmHg 26%
    15:00 +40°C° 0 mm 5 m/s 716 mmHg 24%
    16:00 +39°C° 0 mm 6 m/s 716 mmHg 27%
    17:00 +38°C° 0 mm 6 m/s 716 mmHg 30%
    18:00 +36°C° 0 mm 7 m/s 716 mmHg 33%
    19:00 +35°C° 0 mm 6 m/s 716 mmHg 36%
    20:00 +34°C° 0 mm 6 m/s 717 mmHg 38%
    21:00 +33°C° 0 mm 5 m/s 717 mmHg 41%
    22:00 +32°C° 0 mm 5 m/s 717 mmHg 44%
    23:00 +32°C° 0 mm 5 m/s 717 mmHg 46%

    Demain, 20 Octobre, Vendredi

    Heure Température Précipitation Vent Pression Humidité
    00:00 +30°C° 0 mm 4 m/s 717 mmHg 49%
    01:00 +30°C° 0 mm 4 m/s 717 mmHg 52%
    02:00 +29°C° 0 mm 4 m/s 717 mmHg 54%
    03:00 +29°C° 0 mm 3 m/s 717 mmHg 57%
    04:00 +28°C° 0 mm 3 m/s 717 mmHg 60%
    05:00 +28°C° 0 mm 3 m/s 717 mmHg 62%
    06:00 +28°C° 0 mm 3 m/s 717 mmHg 64%
    07:00 +29°C° 0 mm 3 m/s 717 mmHg 57%
    08:00 +30°C° 0 mm 3 m/s 718 mmHg 51%
    09:00 +31°C° 0 mm 3 m/s 718 mmHg 44%
    10:00 +34°C° 0 mm 3 m/s 718 mmHg 38%
    11:00 +35°C° 0 mm 4 m/s 718 mmHg 33%
    12:00 +37°C° 0 mm 4 m/s 718 mmHg 27%
    13:00 +37°C° 0 mm 5 m/s 718 mmHg 26%
    14:00 +39°C° 0 mm 5 m/s 717 mmHg 24%
    15:00 +39°C° 0 mm 6 m/s 716 mmHg 23%
    16:00 +39°C° 0 mm 6 m/s 716 mmHg 25%
    17:00 +38°C° 0 mm 6 m/s 716 mmHg 27%
    18:00 +36°C° 0 mm 7 m/s 717 mmHg 29%
    19:00 +35°C° 0 mm 6 m/s 717 mmHg 31%
    20:00 +34°C° 0 mm 5 m/s 717 mmHg 33%
    21:00 +33°C° 0 mm 4 m/s 718 mmHg 35%
    22:00 +33°C° 0 mm 4 m/s 718 mmHg 37%
    23:00 +32°C° 0 mm 4 m/s 718 mmHg 39%

    Après-demain, 21 Octobre, Samedi

    Heure Température Précipitation Vent Pression Humidité
    00:00 +31°C° 0 mm 3 m/s 718 mmHg 42%
    01:00 +30°C° 0 mm 3 m/s 717 mmHg 44%
    02:00 +30°C° 0 mm 3 m/s 717 mmHg 47%
    03:00 +29°C° 0 mm 2 m/s 717 mmHg 50%
    04:00 +29°C° 0 mm 2 m/s 717 mmHg 52%
    05:00 +28°C° 0 mm 2 m/s 717 mmHg 55%
    06:00 +28°C° 0 mm 2 m/s 717 mmHg 57%
    07:00 +29°C° 0 mm 2 m/s 717 mmHg 49%
    08:00 +31°C° 0 mm 3 m/s 718 mmHg 42%
    09:00 +33°C° 0 mm 3 m/s 719 mmHg 35%
    10:00 +34°C° 0 mm 3 m/s 718 mmHg 30%
    11:00 +36°C° 0 mm 3 m/s 718 mmHg 25%
    12:00 +37°C° 0 mm 4 m/s 718 mmHg 21%
    13:00 +38°C° 0 mm 4 m/s 717 mmHg 20%
    14:00 +39°C° 0 mm 5 m/s 716 mmHg 20%
    15:00 +40°C° 0 mm 5 m/s 716 mmHg 20%
    16:00 +39°C° 0 mm 5 m/s 716 mmHg 22%
    17:00 +38°C° 0 mm 6 m/s 716 mmHg 24%
    18:00 +36°C° 0 mm 6 m/s 716 mmHg 27%
    19:00 +35°C° 0 mm 5 m/s 716 mmHg 29%
    20:00 +35°C° 0 mm 5 m/s 717 mmHg 31%
    21:00 +34°C° 0 mm 4 m/s 717 mmHg 33%
    22:00 +33°C° 0 mm 4 m/s 717 mmHg 34%
    23:00 +33°C° 0 mm 4 m/s 717 mmHg 36%

    22 Octobre, Dimanche

    Heure Température Précipitation Vent Pression Humidité
    00:00 +31°C° 0 mm 3 m/s 717 mmHg 38%
    01:00 +30°C° 0 mm 3 m/s 716 mmHg 41%
    02:00 +30°C° 0 mm 2 m/s 716 mmHg 44%
    03:00 +29°C° 0 mm 2 m/s 716 mmHg 47%
    04:00 +29°C° 0 mm 2 m/s 716 mmHg 48%
    05:00 +29°C° 0 mm 2 m/s 716 mmHg 50%
    06:00 +28°C° 0 mm 2 m/s 716 mmHg 51%
    07:00 +30°C° 0 mm 2 m/s 717 mmHg 44%
    08:00 +31°C° 0 mm 2 m/s 718 mmHg 37%
    09:00 +34°C° 0 mm 3 m/s 718 mmHg 30%
    10:00 +35°C° 0 mm 3 m/s 718 mmHg 27%
    11:00 +36°C° 0 mm 3 m/s 718 mmHg 23%
    12:00 +38°C° 0 mm 3 m/s 717 mmHg 20%
    13:00 +38°C° 0 mm 4 m/s 716 mmHg 20%
    14:00 +40°C° 0 mm 4 m/s 716 mmHg 20%
    15:00 +40°C° 0 mm 5 m/s 715 mmHg 20%
    16:00 +39°C° 0 mm 5 m/s 715 mmHg 22%
    17:00 +38°C° 0 mm 6 m/s 715 mmHg 25%
    18:00 +36°C° 0 mm 6 m/s 715 mmHg 28%
    19:00 +36°C° 0 mm 6 m/s 715 mmHg 30%
    20:00 +35°C° 0 mm 5 m/s 716 mmHg 31%
    21:00 +34°C° 0 mm 5 m/s 716 mmHg 33%
    22:00 +34°C° 0 mm 4 m/s 716 mmHg 33%
    23:00 +33°C° 0 mm 4 m/s 716 mmHg 34%

    23 Octobre, Lundi

    Heure Température Précipitation Vent Pression Humidité
    00:00 +31°C° 0 mm 3 m/s 716 mmHg 35%
    01:00 +31°C° 0 mm 3 m/s 715 mmHg 37%
    02:00 +30°C° 0 mm 3 m/s 715 mmHg 40%
    03:00 +30°C° 0 mm 2 m/s 715 mmHg 42%
    04:00 +29°C° 0 mm 2 m/s 715 mmHg 44%
    05:00 +29°C° 0 mm 2 m/s 716 mmHg 46%
    06:00 +29°C° 0 mm 1 m/s 716 mmHg 48%
    07:00 +30°C° 0 mm 2 m/s 717 mmHg 42%
    08:00 +31°C° 0 mm 2 m/s 717 mmHg 36%
    09:00 +34°C° 0 mm 3 m/s 718 mmHg 31%
    10:00 +35°C° 0 mm 3 m/s 717 mmHg 27%
    11:00 +36°C° 0 mm 4 m/s 717 mmHg 24%
    12:00 +38°C° 0 mm 4 m/s 716 mmHg 21%
    13:00 +38°C° 0 mm 4 m/s 715 mmHg 21%
    14:00 +40°C° 0 mm 5 m/s 715 mmHg 21%
    15:00 +40°C° 0 mm 5 m/s 714 mmHg 21%
    16:00 +39°C° 0 mm 6 m/s 714 mmHg 24%
    17:00 +38°C° 0 mm 6 m/s 715 mmHg 27%
    18:00 +36°C° 0 mm 7 m/s 715 mmHg 30%
    19:00 +35°C° 0 mm 6 m/s 715 mmHg 31%
    20:00 +34°C° 0 mm 5 m/s 716 mmHg 33%
    21:00 +33°C° 0 mm 5 m/s 716 mmHg 34%
    22:00 +33°C° 0 mm 4 m/s 716 mmHg 36%
    23:00 +32°C° 0 mm 4 m/s 716 mmHg 38%

    24 Octobre, Mardi

    Heure Température Précipitation Vent Pression Humidité
    00:00 +32°C° 0 mm 4 m/s 716 mmHg 40%
    01:00 +30°C° 0 mm 4 m/s 715 mmHg 44%
    02:00 +30°C° 0 mm 3 m/s 715 mmHg 48%
    03:00 +29°C° 0 mm 3 m/s 715 mmHg 53%
    04:00 +29°C° 0 mm 3 m/s 715 mmHg 56%
    05:00 +28°C° 0 mm 3 m/s 716 mmHg 59%
    06:00 +28°C° 0 mm 3 m/s 716 mmHg 62%
    07:00 +29°C° 0 mm 3 m/s 717 mmHg 54%
    08:00 +32°C° 0 mm 4 m/s 717 mmHg 45%
    09:00 +33°C° 0 mm 5 m/s 718 mmHg 37%
    10:00 +35°C° 0 mm 6 m/s 717 mmHg 33%
    11:00 +36°C° 0 mm 7 m/s 717 mmHg 29%
    12:00 +38°C° 0 mm 7 m/s 716 mmHg 25%
    13:00 +38°C° 0 mm 8 m/s 716 mmHg 25%
    14:00 +39°C° 0 mm 8 m/s 715 mmHg 25%
    15:00 +39°C° 0 mm 9 m/s 715 mmHg 26%
    16:00 +37°C° 0 mm 8 m/s 715 mmHg 32%
    17:00 +35°C° 0 mm 8 m/s 715 mmHg 39%
    18:00 +33°C° 0 mm 8 m/s 715 mmHg 45%
    19:00 +32°C° 0 mm 7 m/s 716 mmHg 51%
    20:00 +30°C° 0 mm 7 m/s 716 mmHg 57%
    21:00 +29°C° 0 mm 7 m/s 717 mmHg 63%
    22:00 +29°C° 0 mm 7 m/s 717 mmHg 65%
    23:00 +29°C° 0 mm 7 m/s 717 mmHg 68%
    Voir plus